Meridian, MS

6:16 PM CST on November 20, 2019 (GMT -0600)
Key

Weather History for KMEI - September, 2019

Change the Weather History Date:

Sunday, September 22, 2019

  Actual Average Record
Temperature  
Mean Temperature 78 °F 73 °F  
Max Temperature 91 °F 85 °F 98 °F (1925)
Min Temperature 64 °F 61 °F 41 °F (1983)
Degree Days  
Heating Degree Days 0 0  
Month to date heating degree days 0 0  
Since 1 July heating degree days 0 0  
Cooling Degree Days 13 8  
Month to date cooling degree days 411 249  
Year to date cooling degree days 2494 1869  
Growing Degree Days 28 (Base 50)    
Moisture  
Dew Point 63 °F    
Average Humidity 66    
Maximum Humidity 93    
Minimum Humidity 35    
Precipitation  
Precipitation 0.00 in 0.11 in 1.90 in (1890)
Month to date precipitation 0.23 2.49  
Year to date precipitation 43.18 41.45  
Sea Level Pressure  
Sea Level Pressure 30.11 in    
Wind  
Wind Speed 2 mph ()    
Max Wind Speed 15 mph    
Max Gust Speed 19 mph    
Visibility 10.0 miles    
Events      
T = Trace of Precipitation, MM = Missing Value Source: Averaged Metar Reports

Daily Weather History Graph

Daily Weather History Graph

Search for Another Location

Airport or City:

Astronomy

Sep. 22, 2019 Rise Set
Actual Time 6:43 AM CDT 6:51 PM CDT
Civil Twilight 6:18 AM CDT 7:16 PM CDT
Nautical Twilight 5:49 AM CDT 7:44 PM CDT
Astronomical Twilight 5:21 AM CDT 8:13 PM CDT
Moon No Moon Rise 2:26 PM CDT (9/22)
Length of Visible Light 12h 57m
Length of Day
12h 08m
Last Quarter, 44% of the Moon is Illuminated
Sep 22
Last Quarter
Sep 28
New
Oct 5
First Quarter
Oct 13
Full
Oct 21
Last Quarter

Hourly Weather History & Observations

Time (CDT) Temp. Heat Index Dew Point Humidity Pressure Visibility Wind Dir Wind Speed Gust Speed Precip Events Conditions
12:58 AM 70.0 °F - 64.0 °F 81% 30.13 in 10.0 mi Calm Calm - N/A   Clear
2:58 AM 66.9 °F - 63.0 °F 87% 30.13 in 10.0 mi Calm Calm - N/A   Clear
3:58 AM 64.9 °F - 62.1 °F 90% 30.13 in 10.0 mi WNW 3.5 mph - N/A   Clear
4:58 AM 66.0 °F - 62.1 °F 87% 30.14 in 10.0 mi Calm Calm - N/A   Clear
5:58 AM 64.9 °F - 61.0 °F 87% 30.14 in 10.0 mi Calm Calm - N/A   Clear
6:58 AM 64.0 °F - 61.0 °F 90% 30.15 in 10.0 mi Calm Calm - N/A   Clear
7:58 AM 69.1 °F - 64.0 °F 84% 30.17 in 10.0 mi Calm Calm - N/A   Clear
8:58 AM 77.0 °F - 66.9 °F 71% 30.17 in 10.0 mi Calm Calm - N/A   Clear
9:58 AM 84.0 °F 86.5 °F 66.9 °F 56% 30.17 in 10.0 mi Variable 5.8 mph - N/A   Clear
10:58 AM 86.0 °F 87.3 °F 64.0 °F 48% 30.15 in 10.0 mi East 11.5 mph - N/A   Clear
11:58 AM 84.9 °F 85.0 °F 61.0 °F 44% 30.14 in 10.0 mi South 6.9 mph - N/A   Overcast
12:58 PM 88.0 °F 87.9 °F 61.0 °F 40% 30.12 in 10.0 mi SE 9.2 mph - N/A   Mostly Cloudy
1:58 PM 89.1 °F 89.0 °F 61.0 °F 39% 30.09 in 10.0 mi SSE 6.9 mph - N/A   Clear
2:58 PM 91.0 °F 90.5 °F 60.1 °F 35% 30.07 in 10.0 mi South 8.1 mph - N/A   Clear
3:58 PM 90.0 °F 89.1 °F 59.0 °F 35% 30.05 in 10.0 mi Calm Calm - N/A   Clear
4:58 PM 89.1 °F 89.0 °F 61.0 °F 39% 30.05 in 10.0 mi SW 4.6 mph - N/A   Clear
5:58 PM 88.0 °F 87.6 °F 60.1 °F 39% 30.05 in 10.0 mi SSE 5.8 mph - N/A   Clear
6:58 PM 79.0 °F - 64.9 °F 62% 30.06 in 10.0 mi South 3.5 mph - N/A   Clear
7:58 PM 75.9 °F - 64.9 °F 69% 30.07 in 10.0 mi Calm Calm - N/A   Clear
8:58 PM 72.0 °F - 64.9 °F 78% 30.08 in 10.0 mi Calm Calm - N/A   Clear
9:58 PM 71.1 °F - 64.0 °F 78% 30.09 in 10.0 mi Calm Calm - N/A   Clear
10:58 PM 69.1 °F - 64.0 °F 84% 30.09 in 10.0 mi Calm Calm - N/A   Clear
11:58 PM 68.0 °F - 64.0 °F 87% 30.09 in 10.0 mi Calm Calm - N/A   Clear